DW8248 Weather Reports


Display with metric or nautical units.
time (UTC)temp
F
wind
direction
speed
MPH
gust
MPH
rain 1hr
in
rain 24hr
in
rain mn
in
humidity
%
barometer
mb
20210517133027 77 24 5.0 11.0 0.00 0.00 0.00 71 1020.5
20210517132006 77 55 5.0 13.0 0.00 0.00 0.00 70 1020.5
20210517131025 77 23 7.0 13.0 0.00 0.00 0.00 70 1020.4
20210517125951 77 28 7.0 13.0 0.00 0.00 0.00 69 1020.3
20210517124946 75 53 6.0 14.0 0.00 0.00 0.00 70 1020.2
20210517123945 76 46 7.0 14.0 0.00 0.00 0.00 70 1020.1
20210517122948 76 45 6.0 13.0 0.00 0.00 0.00 66 1019.9
20210517121919 77 44 5.0 12.0 0.00 0.00 0.00 65 1020.0
20210517120907 76 63 4.0 12.0 0.00 0.00 0.00 65 1020.0
20210517115901 76 31 4.0 10.0 0.00 0.00 0.00 66 1020.1
20210517114836 76 63 4.0 11.0 0.00 0.00 0.00 64 1020.1
20210517113821 76 79 4.0 11.0 0.00 0.00 0.00 63 1020.0
20210517112837 76 44 4.0 10.0 0.00 0.00 0.00 63 1019.9
20210517111804 75 50 5.0 11.0 0.00 0.00 0.00 63 1019.8
20210517110818 75 56 4.0 11.0 0.00 0.00 0.00 64 1019.7
20210517105751 74 82 4.0 9.0 0.00 0.00 0.00 64 1019.7
20210517104751 74 69 3.0 9.0 0.00 0.00 0.00 64 1019.7
20210517103754 74 76 4.0 10.0 0.00 0.00 0.00 63 1019.4
20210517102726 75 36 4.0 10.0 0.00 0.00 0.00 63 1019.4
20210517101654 75 76 4.0 10.0 0.00 0.00 0.00 62 1019.5
20210517100644 75 62 4.0 10.0 0.00 0.00 0.00 63 1019.5
20210517095606 75 17 5.0 11.0 0.00 0.00 0.00 63 1019.5
20210517094551 75 44 5.0 12.0 0.00 0.00 0.00 65 1019.4
20210517093548 75 38 5.0 12.0 0.00 0.00 0.00 64 1019.4
20210517092558 75 45 5.0 11.0 0.00 0.00 0.00 65 1019.6
20210517091527 75 40 5.0 11.0 0.00 0.00 0.00 64 1019.5
20210517090522 74 49 4.0 9.0 0.00 0.00 0.00 65 1019.5
20210517085522 74 55 4.0 9.0 0.00 0.00 0.00 65 1019.4
20210517084454 74 66 4.0 9.0 0.00 0.00 0.00 64 1019.4
20210517083506 75 47 4.0 9.0 0.00 0.00 0.00 64 1019.4
20210517082447 75 98 3.0 9.0 0.00 0.00 0.00 62 1019.5
20210517081428 75 94 4.0 9.0 0.00 0.00 0.00 62 1019.5
20210517080442 75 100 3.0 10.0 0.00 0.00 0.00 62 1019.5
20210517075421 75 82 4.0 10.0 0.00 0.00 0.00 61 1019.5
20210517074413 75 83 4.0 12.0 0.00 0.00 0.00 62 1019.5
20210517073433 75 58 5.0 12.0 0.00 0.00 0.00 61 1019.5
20210517072421 75 94 5.0 11.0 0.00 0.00 0.00 62 1019.5
20210517071359 75 90 5.0 10.0 0.00 0.00 0.00 60 1019.4
20210517070417 75 76 4.0 10.0 0.00 0.00 0.00 60 1019.5
20210517065351 75 60 4.0 10.0 0.00 0.00 0.00 60 1019.6
20210517064356 75 72 4.0 9.0 0.00 0.00 0.00 60 1019.7
20210517063321 75 86 4.0 9.0 0.00 0.00 0.00 59 1019.8
20210517062323 75 76 4.0 9.0 0.00 0.00 0.00 59 1019.9
20210517061249 75 86 5.0 10.0 0.00 0.00 0.00 58 1020.0
20210517060249 75 92 4.0 10.0 0.00 0.00 0.00 59 1020.0
20210517055246 75 103 4.0 9.0 0.00 0.00 0.00 59 1020.1
20210517054231 75 94 4.0 9.0 0.00 0.00 0.00 60 1020.2
20210517053201 75 113 4.0 10.0 0.00 0.00 0.00 59 1020.4
20210517052144 75 107 4.0 12.0 0.00 0.00 0.00 59 1020.4
20210517051145 75 101 5.0 14.0 0.00 0.00 0.00 59 1020.5
20210517050135 75 76 5.0 14.0 0.00 0.00 0.00 57 1020.7
20210517045144 75 69 6.0 14.0 0.00 0.00 0.00 58 1020.7
20210517044148 75 79 6.0 14.0 0.00 0.00 0.00 60 1020.7
20210517043148 75 77 5.0 12.0 0.00 0.00 0.00 59 1020.9
20210517042135 75 51 6.0 12.0 0.00 0.00 0.00 60 1021.1
20210517041143 75 69 5.0 11.0 0.00 0.00 0.00 60 1021.1
20210517040134 75 88 6.0 13.0 0.00 0.00 0.00 61 1021.1
20210517035057 75 106 6.0 13.0 0.00 0.00 0.00 60 1021.1
20210517034111 75 61 6.0 12.0 0.00 0.00 0.00 61 1021.1
20210517033054 75 105 5.0 13.0 0.00 0.00 0.00 60 1021.2
20210517032041 75 99 5.0 13.0 0.00 0.00 0.00 60 1021.2
20210517031039 75 56 4.0 12.0 0.00 0.00 0.00 60 1021.2
20210517030102 75 97 5.0 13.0 0.00 0.00 0.00 61 1021.2
20210517025110 75 84 6.0 13.0 0.00 0.00 0.00 58 1021.3
20210517024039 75 49 6.0 13.0 0.00 0.00 0.00 58 1021.2
20210517023043 75 89 5.0 15.0 0.00 0.00 0.00 59 1021.2
20210517022047 75 78 6.0 15.0 0.00 0.00 0.00 58 1021.1
20210517021033 75 74 6.0 15.0 0.00 0.00 0.00 59 1021.2
20210517020032 75 40 6.0 13.0 0.00 0.00 0.00 58 1021.1
20210517015052 75 75 5.0 11.0 0.00 0.00 0.00 60 1021.0
20210517014018 75 74 5.0 14.0 0.00 0.00 0.00 58 1021.0
20210517013013 75 54 5.0 14.0 0.00 0.00 0.00 59 1020.7
20210517012030 75 27 5.0 13.0 0.00 0.00 0.00 57 1020.7
20210517011037 75 52 5.0 12.0 0.00 0.00 0.00 59 1020.6
20210517010043 75 64 6.0 12.0 0.00 0.00 0.00 59 1020.6
20210517005047 75 55 6.0 13.0 0.00 0.00 0.00 59 1020.5
20210517004025 75 82 4.0 13.0 0.00 0.00 0.00 60 1020.5
20210517003014 75 76 6.0 13.0 0.00 0.00 0.00 59 1020.5
20210517001950 75 52 5.0 13.0 0.00 0.00 0.00 59 1020.3
20210517000939 75 65 6.0 12.0 0.00 0.00 0.00 60 1020.2
20210516235946 75 83 4.0 10.0 0.00 0.00 0.00 61 1020.1
20210516234957 75 63 5.0 12.0 0.00 0.00 0.00 61 1020.1
20210516233957 75 84 4.0 12.0 0.00 0.00 0.00 60 1020.2
20210516233017 76 59 5.0 11.0 0.00 0.00 0.00 60 1020.2
20210516232028 76 41 5.0 11.0 0.00 0.00 0.00 59 1020.2
20210516231007 76 58 5.0 11.0 0.00 0.00 0.00 60 1020.2
20210516230009 76 73 5.0 11.0 0.00 0.00 0.00 59 1020.2
20210516225003 76 67 5.0 11.0 0.00 0.00 0.00 61 1020.3
20210516224021 76 51 4.0 11.0 0.00 0.00 0.00 60 1020.4
20210516223026 76 40 5.0 11.0 0.00 0.00 0.00 58 1020.4
20210516222004 76 60 4.0 10.0 0.00 0.00 0.00 60 1020.4
20210516221008 77 88 5.0 10.0 0.00 0.00 0.00 58 1020.3
20210516215959 77 41 5.0 12.0 0.00 0.00 0.00 58 1020.3
20210516215009 77 53 6.0 12.0 0.00 0.00 0.00 58 1020.2
20210516214026 77 34 6.0 11.0 0.00 0.00 0.00 59 1020.2
20210516213024 77 38 6.0 14.0 0.00 0.00 0.00 59 1020.2
20210516212006 77 55 7.0 14.0 0.00 0.00 0.00 59 1020.2
20210516210951 77 19 6.0 13.0 0.00 0.00 0.00 59 1020.2
20210516205926 78 84 6.0 13.0 0.00 0.00 0.00 59 1020.3
20210516204945 77 30 5.0 12.0 0.00 0.00 0.00 59 1020.3
20210516204005 77 52 6.0 12.0 0.00 0.00 0.00 59 1020.3
20210516202946 77 46 6.0 11.0 0.00 0.00 0.00 58 1020.3
20210516201941 77 83 7.0 14.0 0.00 0.00 0.00 58 1020.3
20210516200935 77 57 8.0 14.0 0.00 0.00 0.00 58 1020.2
20210516195907 77 52 8.0 14.0 0.00 0.00 0.00 58 1020.4
20210516194914 78 62 7.0 14.0 0.00 0.00 0.00 58 1020.3
20210516193911 77 26 8.0 14.0 0.00 0.00 0.00 58 1020.4
20210516192840 78 36 7.0 15.0 0.00 0.00 0.00 58 1020.4
20210516191825 78 62 7.0 15.0 0.00 0.00 0.00 59 1020.8
20210516190848 78 59 7.0 15.0 0.00 0.00 0.00 58 1021.1
20210516185841 78 19 6.0 13.0 0.00 0.00 0.00 59 1021.2
20210516184851 77 46 5.0 12.0 0.00 0.00 0.00 58 1021.3
20210516183834 77 40 7.0 13.0 0.00 0.00 0.00 58 1021.6
20210516182847 78 44 6.0 13.0 0.00 0.00 0.00 59 1021.7
20210516181811 78 36 7.0 13.0 0.00 0.00 0.00 58 1021.9
20210516180740 78 81 7.0 15.0 0.00 0.00 0.00 60 1021.9
20210516175749 78 57 8.0 15.0 0.00 0.00 0.00 59 1022.0
20210516174736 78 40 7.0 15.0 0.00 0.00 0.00 58 1021.9
20210516173757 78 49 8.0 14.0 0.00 0.00 0.00 60 1021.9
20210516172818 77 44 8.0 14.0 0.00 0.00 0.00 59 1022.1
20210516171758 77 83 7.0 15.0 0.00 0.00 0.00 59 1022.3
20210516170742 77 40 7.0 15.0 0.00 0.00 0.00 59 1022.4
20210516165752 78 94 8.0 15.0 0.00 0.00 0.00 60 1022.5
20210516164720 77 23 6.0 15.0 0.00 0.00 0.00 60 1022.7
20210516163659 77 51 6.0 15.0 0.00 0.00 0.00 61 1022.8
20210516162710 77 55 7.0 13.0 0.00 0.00 0.00 61 1022.9
20210516161732 77 52 7.0 16.0 0.00 0.00 0.00 60 1022.9
20210516160738 77 56 8.0 17.0 0.00 0.00 0.00 60 1022.9
20210516155727 78 55 9.0 17.0 0.00 0.00 0.00 59 1022.9
20210516154717 78 49 8.0 15.0 0.00 0.00 0.00 59 1022.9
20210516153711 77 63 7.0 17.0 0.00 0.00 0.00 59 1022.8
20210516152713 78 41 7.0 17.0 0.00 0.00 0.00 59 1022.7
20210516151640 78 34 9.0 16.0 0.00 0.00 0.00 59 1022.7
20210516150619 77 55 9.0 17.0 0.00 0.00 0.00 59 1022.8
20210516145631 78 51 8.0 17.0 0.00 0.00 0.00 60 1022.7
20210516144632 77 112 8.0 18.0 0.00 0.00 0.00 61 1022.7
20210516143635 77 36 8.0 18.0 0.00 0.00 0.00 60 1022.8
20210516142633 77 44 8.0 15.0 0.00 0.00 0.00 60 1022.7
20210516141625 77 68 8.0 16.0 0.00 0.00 0.00 60 1022.6
20210516140615 77 30 9.0 18.0 0.00 0.00 0.00 61 1022.5
20210516135613 77 55 8.0 18.0 0.00 0.00 0.00 60 1022.4
20210516134548 77 29 8.0 17.0 0.00 0.00 0.00 60 1022.4